AEE1535 LGAV-LTFM

Flight info

Callsign AEE1535
Flight time 0h 26m
Altitude 36000
Route LGAV/21L KRO2F KRO UN604 INBET INBE1C LTFM/35R
Aircraft A20N/M-SDE2E3FGHIJ1RWXY/LB1

Departure

Time 2026-05-07 13:59
Airport Athens Eleftherios Venizelos International Airport (LGAV)

Arrival

Time 2026-05-07 14:25
Airport İstanbul Airport (LTFM)
Time Latitude Longitude Altitude Speed Heading
2026-05-07 13:35 37.93327 23.94587 289 ft 0 kts 311°
2026-05-07 13:47 37.93319 23.94599 285 ft 2 kts 312°
2026-05-07 13:47 37.93308 23.94614 285 ft 2 kts 313°
2026-05-07 13:48 37.93296 23.94629 286 ft 2 kts 316°
2026-05-07 13:48 37.93284 23.94643 295 ft 2 kts 326°
2026-05-07 13:48 37.93269 23.94651 293 ft 2 kts 15°
2026-05-07 13:48 37.93261 23.94647 295 ft 0 kts 36°
2026-05-07 13:50 37.93263 23.94649 293 ft 2 kts 36°
2026-05-07 13:50 37.93284 23.94669 288 ft 6 kts 37°
2026-05-07 13:50 37.93327 23.94710 290 ft 10 kts 37°
2026-05-07 13:50 37.93391 23.94773 287 ft 14 kts 38°
2026-05-07 13:51 37.93445 23.94844 284 ft 10 kts 69°
2026-05-07 13:51 37.93427 23.94913 284 ft 0 kts 122°
2026-05-07 13:51 37.93426 23.94914 284 ft 1 kts 122°
2026-05-07 13:52 37.93417 23.94932 284 ft 4 kts 124°
2026-05-07 13:52 37.93392 23.94974 284 ft 7 kts 118°
2026-05-07 13:52 37.93405 23.95043 287 ft 10 kts 49°
2026-05-07 13:52 37.93469 23.95105 283 ft 14 kts 38°
2026-05-07 13:53 37.93553 23.95188 282 ft 17 kts 37°
2026-05-07 13:53 37.93661 23.95290 281 ft 21 kts 37°
2026-05-07 13:53 37.93786 23.95412 280 ft 24 kts 37°
2026-05-07 13:53 37.93931 23.95547 282 ft 27 kts 37°
2026-05-07 13:54 37.94090 23.95698 276 ft 30 kts 37°
2026-05-07 13:54 37.94263 23.95861 275 ft 32 kts 37°
2026-05-07 13:54 37.94395 23.95988 277 ft 18 kts 36°
2026-05-07 13:54 37.94505 23.96092 272 ft 22 kts 37°
2026-05-07 13:55 37.94634 23.96216 270 ft 25 kts 37°
2026-05-07 13:55 37.94749 23.96325 269 ft 22 kts 37°
2026-05-07 13:55 37.94879 23.96448 268 ft 25 kts 37°
2026-05-07 13:55 37.95025 23.96588 266 ft 28 kts 37°
2026-05-07 13:56 37.95152 23.96707 265 ft 15 kts 36°
2026-05-07 13:56 37.95248 23.96796 264 ft 19 kts 36°
2026-05-07 13:56 37.95278 23.96827 264 ft 2 kts 41°
2026-05-07 13:56 37.95294 23.96855 263 ft 6 kts 63°
2026-05-07 13:57 37.95289 23.96908 263 ft 7 kts 119°
2026-05-07 13:57 37.95277 23.96934 263 ft 0 kts 123°
2026-05-07 13:57 37.95268 23.96950 263 ft 8 kts 124°
2026-05-07 13:57 37.95213 23.97018 264 ft 12 kts 161°
2026-05-07 13:58 37.95148 23.96976 265 ft 7 kts 217°
2026-05-07 13:58 37.95137 23.96966 266 ft 15 kts 217°
2026-05-07 13:58 37.94800 23.96649 269 ft 102 kts 217°
2026-05-07 13:58 37.94047 23.95938 379 ft 158 kts 216°
2026-05-07 13:59 37.93114 23.95054 1001 ft 180 kts 216°
2026-05-07 13:59 37.91989 23.93982 1310 ft 226 kts 216°
2026-05-07 13:59 37.90594 23.92788 1995 ft 244 kts 207°
2026-05-07 13:59 37.89111 23.91880 3436 ft 232 kts 205°
2026-05-07 14:00 37.87619 23.91025 4381 ft 241 kts 205°
2026-05-07 14:00 37.86086 23.90098 5317 ft 246 kts 207°
2026-05-07 14:00 37.84551 23.89122 6322 ft 250 kts 209°
2026-05-07 14:00 37.82980 23.88092 7142 ft 258 kts 209°
2026-05-07 14:01 37.81248 23.87351 7742 ft 278 kts 187°
2026-05-07 14:01 37.79289 23.87205 8609 ft 285 kts 185°
2026-05-07 14:01 37.77297 23.87077 9536 ft 289 kts 185°
2026-05-07 14:01 37.75276 23.87196 10401 ft 297 kts 167°
2026-05-07 14:02 37.73327 23.88317 10780 ft 324 kts 144°
2026-05-07 14:02 37.71744 23.90477 11047 ft 350 kts 121°
2026-05-07 14:02 37.70890 23.93394 11627 ft 360 kts 98°
2026-05-07 14:02 37.70943 23.96556 12396 ft 364 kts 76°
2026-05-07 14:03 37.71881 23.99517 13132 ft 365 kts 54°
2026-05-07 14:03 37.73577 24.01875 13885 ft 364 kts 33°
2026-05-07 14:03 37.75664 24.03695 14565 ft 367 kts 31°
2026-05-07 14:03 37.77696 24.05708 15216 ft 376 kts 38°
2026-05-07 14:04 37.79543 24.08091 15965 ft 381 kts 46°
2026-05-07 14:04 37.81228 24.10728 16609 ft 389 kts 50°
2026-05-07 14:04 37.82829 24.13521 17262 ft 395 kts 52°
2026-05-07 14:04 37.84407 24.16401 17908 ft 401 kts 53°
2026-05-07 14:05 37.85996 24.19334 18526 ft 407 kts 53°
2026-05-07 14:05 37.87601 24.22294 19150 ft 409 kts 53°
2026-05-07 14:05 37.89219 24.25269 19773 ft 412 kts 53°
2026-05-07 14:05 37.90856 24.28272 20375 ft 416 kts 52°
2026-05-07 14:06 37.92503 24.31292 20997 ft 418 kts 52°
2026-05-07 14:06 37.94163 24.34334 21595 ft 422 kts 52°
2026-05-07 14:06 37.95836 24.37403 22193 ft 424 kts 52°
2026-05-07 14:06 37.97493 24.40449 23263 ft 412 kts 52°
2026-05-07 14:07 37.99079 24.43374 24484 ft 393 kts 52°
2026-05-07 14:07 38.00589 24.46168 25622 ft 374 kts 51°
2026-05-07 14:07 38.02020 24.48822 26738 ft 355 kts 50°
2026-05-07 14:07 38.03381 24.51346 27670 ft 341 kts 49°
2026-05-07 14:08 38.04772 24.53785 28018 ft 340 kts 39°
2026-05-07 14:08 38.06405 24.55974 28208 ft 345 kts 38°
2026-05-07 14:08 38.08068 24.58163 28622 ft 344 kts 38°
2026-05-07 14:08 38.09732 24.60353 28942 ft 347 kts 38°
2026-05-07 14:09 38.11430 24.62582 29073 ft 356 kts 38°
2026-05-07 14:09 38.14962 24.67230 29235 ft 370 kts 38°
2026-05-07 14:10 38.30962 24.88417 30103 ft 446 kts 41°
2026-05-07 14:10 38.48926 25.12442 32213 ft 474 kts 43°
2026-05-07 14:10 38.67089 25.36994 35196 ft 464 kts 43°
2026-05-07 14:10 38.84497 25.60626 36175 ft 461 kts 43°
2026-05-07 14:11 39.02122 25.84750 36056 ft 463 kts 43°
2026-05-07 14:11 39.19654 26.08922 36198 ft 461 kts 43°
2026-05-07 14:11 39.37027 26.33081 36058 ft 457 kts 43°
2026-05-07 14:12 39.71393 26.81428 36076 ft 456 kts 44°
2026-05-07 14:12 39.84503 26.96345 36121 ft 450 kts 29°
2026-05-07 14:12 39.99665 27.10031 34824 ft 454 kts 31°
2026-05-07 14:12 40.20768 27.28309 30716 ft 456 kts 18°
2026-05-07 14:13 40.36680 27.29760 26145 ft 415 kts 349°
2026-05-07 14:13 40.48031 27.29461 23651 ft 410 kts
2026-05-07 14:13 40.59016 27.30251 20880 ft 376 kts
2026-05-07 14:13 40.73465 27.31316 17101 ft 374 kts
2026-05-07 14:14 40.92516 27.40841 14433 ft 358 kts 30°
2026-05-07 14:14 40.96362 27.50097 13685 ft 364 kts 96°
2026-05-07 14:14 40.91134 27.61233 12913 ft 360 kts 123°
2026-05-07 14:14 40.86605 27.72930 12082 ft 356 kts 114°
2026-05-07 14:15 40.81675 27.89682 10705 ft 350 kts 87°
2026-05-07 14:15 40.83165 28.04794 9877 ft 301 kts 84°
2026-05-07 14:15 40.83331 28.07563 9659 ft 303 kts 84°
2026-05-07 14:15 40.83687 28.13492 9186 ft 299 kts 84°
2026-05-07 14:16 40.84466 28.25302 8406 ft 296 kts 84°
2026-05-07 14:16 40.85670 28.43790 7162 ft 290 kts 84°
2026-05-07 14:16 40.88969 28.58196 6057 ft 254 kts 69°
2026-05-07 14:16 40.89553 28.60405 5899 ft 255 kts 70°
2026-05-07 14:17 40.90126 28.62617 5729 ft 254 kts 70°
2026-05-07 14:17 40.92295 28.69300 5204 ft 247 kts 38°
2026-05-07 14:17 40.94471 28.71009 5001 ft 240 kts 25°
2026-05-07 14:17 40.95899 28.72049 5000 ft 232 kts 26°
2026-05-07 14:18 40.97369 28.72923 5001 ft 231 kts 11°
2026-05-07 14:18 40.98937 28.73266 4998 ft 228 kts
2026-05-07 14:18 41.00515 28.73317 4999 ft 226 kts 355°
2026-05-07 14:18 41.02087 28.73281 4998 ft 227 kts 355°
2026-05-07 14:19 41.03663 28.73249 4752 ft 226 kts 355°
2026-05-07 14:19 41.05233 28.73219 4390 ft 223 kts 355°
2026-05-07 14:19 41.06761 28.73188 4074 ft 216 kts 354°
2026-05-07 14:19 41.08244 28.73156 3768 ft 209 kts 354°
2026-05-07 14:20 41.09659 28.73127 3519 ft 198 kts 355°
2026-05-07 14:20 41.11006 28.73112 3266 ft 189 kts 354°
2026-05-07 14:20 41.12287 28.73072 3019 ft 180 kts 355°
2026-05-07 14:20 41.13508 28.73050 2780 ft 171 kts 355°
2026-05-07 14:21 41.14637 28.73027 2570 ft 153 kts 354°
2026-05-07 14:21 41.15641 28.73005 2372 ft 137 kts 354°
2026-05-07 14:21 41.16571 28.72982 2209 ft 135 kts 354°
2026-05-07 14:21 41.17498 28.72962 2012 ft 129 kts 354°
2026-05-07 14:22 41.18410 28.72944 1860 ft 134 kts 355°
2026-05-07 14:22 41.19321 28.72927 1686 ft 130 kts 355°
2026-05-07 14:22 41.20234 28.72908 1508 ft 132 kts 355°
2026-05-07 14:22 41.21156 28.72886 1333 ft 132 kts 356°
2026-05-07 14:23 41.22077 28.72868 1153 ft 132 kts 357°
2026-05-07 14:23 41.22976 28.72848 997 ft 130 kts 359°
2026-05-07 14:23 41.23873 28.72828 820 ft 127 kts
2026-05-07 14:23 41.24753 28.72810 693 ft 130 kts
2026-05-07 14:24 41.25645 28.72786 478 ft 125 kts
2026-05-07 14:24 41.26522 28.72771 344 ft 127 kts
2026-05-07 14:24 41.27351 28.72762 295 ft 98 kts 359°
2026-05-07 14:24 41.27873 28.72752 278 ft 64 kts
2026-05-07 14:25 41.28256 28.72763 266 ft 32 kts 13°
2026-05-07 14:25 41.28449 28.72878 264 ft 13 kts 44°
2026-05-07 14:25 41.28453 28.72884 264 ft 0 kts 50°